Time,TemperatureF,DewpointF,PressureIn,WindDirection,WindDirectionDegrees,WindSpeedMPH,WindSpeedGustMPH,Humidity,HourlyPrecipIn,Conditions,Clouds,dailyrainin,SoftwareType,DateUTC
2013-01-20 00:01:00,43.0,29.2,30.05,SW,222,21.1,21.9,58,0.00,CLR,,0.00,WeatherDisplay:10.37,2013-01-20 05:01:00,
2013-01-20 00:03:00,43.0,29.2,30.05,SW,222,21.1,21.1,58,0.00,CLR,,0.00,WeatherDisplay:10.37,2013-01-20 05:03:00,
2013-01-20 00:04:00,43.0,29.2,30.05,South,177,6.6,7.2,58,0.00,CLR,,0.00,WeatherDisplay:10.37,2013-01-20 05:04:00,
2013-01-20 00:09:00,43.0,29.2,30.05,SW,222,3.8,4.6,58,0.00,CLR,,0.00,WeatherDisplay:10.37,2013-01-20 05:09:00,
2013-01-20 00:14:00,42.8,29.0,30.05,NW,312,5.0,10.4,58,0.00,CLR,,0.00,WeatherDisplay:10.37,2013-01-20 05:14:00,
2013-01-20 00:19:00,42.8,29.0,30.05,West,267,6.9,8.1,58,0.00,CLR,,0.00,WeatherDisplay:10.37,2013-01-20 05:19:00,
2013-01-20 00:24:00,42.6,28.9,30.05,SW,222,6.7,6.7,58,0.00,CLR,,0.00,WeatherDisplay:10.37,2013-01-20 05:24:00,
2013-01-20 00:29:00,42.6,28.9,30.05,NNW,335,4.9,5.8,58,0.00,CLR,,0.00,WeatherDisplay:10.37,2013-01-20 05:29:00,
2013-01-20 00:34:00,42.4,28.7,30.06,WSW,245,4.9,5.1,58,0.00,CLR,,0.00,WeatherDisplay:10.37,2013-01-20 05:34:00,
2013-01-20 00:39:00,42.4,28.7,30.06,SW,222,10.0,10.4,58,0.00,CLR,,0.00,WeatherDisplay:10.37,2013-01-20 05:39:00,
2013-01-20 00:44:00,42.4,29.1,30.05,West,267,7.4,10.4,59,0.00,CLR,,0.00,WeatherDisplay:10.37,2013-01-20 05:44:00,
2013-01-20 00:49:00,42.1,28.8,30.05,SW,222,6.8,6.9,59,0.00,CLR,,0.00,WeatherDisplay:10.37,2013-01-20 05:49:00,
2013-01-20 00:54:00,41.9,28.6,30.06,SW,222,6.4,6.9,59,0.00,CLR,,0.00,WeatherDisplay:10.37,2013-01-20 05:54:00,
2013-01-20 00:59:00,41.9,28.6,30.06,SSE,155,3.4,3.5,59,0.00,CLR,,0.00,WeatherDisplay:10.37,2013-01-20 05:59:00,
2013-01-20 01:04:00,41.7,28.8,30.06,SSW,199,7.5,8.1,60,0.00,CLR,,0.00,WeatherDisplay:10.37,2013-01-20 06:04:00,
2013-01-20 01:09:00,41.7,28.8,30.06,SSW,199,4.5,4.6,60,0.00,CLR,,0.00,WeatherDisplay:10.37,2013-01-20 06:09:00,
2013-01-20 01:14:00,41.5,28.7,30.06,WSW,245,5.4,5.8,60,0.00,CLR,,0.00,WeatherDisplay:10.37,2013-01-20 06:14:00,
2013-01-20 01:19:00,41.5,28.7,30.06,West,267,12.3,12.3,60,0.00,CLR,,0.00,WeatherDisplay:10.37,2013-01-20 06:19:00,
2013-01-20 01:24:00,41.4,28.9,30.06,SSW,199,7.6,8.1,61,0.00,CLR,,0.00,WeatherDisplay:10.37,2013-01-20 06:24:00,
2013-01-20 01:29:00,41.4,28.9,30.06,West,267,8.7,11.5,61,0.00,CLR,,0.00,WeatherDisplay:10.37,2013-01-20 06:29:00,
2013-01-20 01:34:00,41.4,28.9,30.06,WSW,245,3.8,4.6,61,0.00,CLR,,0.00,WeatherDisplay:10.37,2013-01-20 06:34:00,
2013-01-20 01:39:00,41.2,28.7,30.06,South,177,5.8,5.8,61,0.00,CLR,,0.00,WeatherDisplay:10.37,2013-01-20 06:39:00,
2013-01-20 01:44:00,41.2,28.7,30.06,SW,222,3.8,5.8,61,0.00,CLR,,0.00,WeatherDisplay:10.37,2013-01-20 06:44:00,
2013-01-20 01:49:00,41.2,28.7,30.06,WSW,245,6.4,8.1,61,0.00,CLR,,0.00,WeatherDisplay:10.37,2013-01-20 06:49:00,
2013-01-20 01:54:00,41.2,29.1,30.06,SSW,199,10.3,10.3,62,0.00,CLR,,0.00,WeatherDisplay:10.37,2013-01-20 06:54:00,
2013-01-20 01:59:00,41.2,29.1,30.06,SSW,199,10.3,10.3,62,0.00,CLR,,0.00,WeatherDisplay:10.37,2013-01-20 06:59:00,
2013-01-20 02:04:00,41.2,29.1,30.06,SSW,199,10.3,10.3,62,0.00,CLR,,0.00,WeatherDisplay:10.37,2013-01-20 07:04:00,
2013-01-20 02:09:00,41.2,29.1,30.06,SSW,199,10.3,10.3,62,0.00,CLR,,0.00,WeatherDisplay:10.37,2013-01-20 07:09:00,
2013-01-20 02:14:00,41.2,29.1,30.06,NW,312,2.2,4.6,62,0.00,CLR,,0.00,WeatherDisplay:10.37,2013-01-20 07:14:00,
2013-01-20 02:19:00,41.2,29.1,30.06,NW,312,2.2,4.6,62,0.00,CLR,,0.00,WeatherDisplay:10.37,2013-01-20 07:19:00,
2013-01-20 02:24:00,41.2,29.1,30.06,NW,312,2.2,4.6,62,0.00,CLR,,0.00,WeatherDisplay:10.37,2013-01-20 07:24:00,
2013-01-20 02:29:00,40.6,28.6,30.06,WSW,245,4.5,4.5,62,0.00,CLR,,0.00,WeatherDisplay:10.37,2013-01-20 07:29:00,
2013-01-20 02:34:00,40.6,28.6,30.06,WSW,245,4.5,4.5,62,0.00,CLR,,0.00,WeatherDisplay:10.37,2013-01-20 07:34:00,
2013-01-20 02:39:00,40.6,28.6,30.06,WSW,245,4.5,4.5,62,0.00,CLR,,0.00,WeatherDisplay:10.37,2013-01-20 07:39:00,
2013-01-20 02:44:00,40.6,28.6,30.06,WSW,245,4.5,4.5,62,0.00,CLR,,0.00,WeatherDisplay:10.37,2013-01-20 07:44:00,
2013-01-20 02:49:00,40.6,28.6,30.06,SW,222,1.5,5.8,62,0.00,CLR,,0.00,WeatherDisplay:10.37,2013-01-20 07:49:00,
2013-01-20 02:54:00,39.7,27.8,30.08,SW,222,4.8,4.8,62,0.00,CLR,,0.00,WeatherDisplay:10.37,2013-01-20 07:54:00,
2013-01-20 02:59:00,39.7,27.8,30.08,SW,222,4.8,4.8,62,0.00,CLR,,0.00,WeatherDisplay:10.37,2013-01-20 07:59:00,
2013-01-20 03:04:00,39.6,28.4,30.08,SW,222,7.2,7.2,64,0.00,CLR,,0.00,WeatherDisplay:10.37,2013-01-20 08:04:00,
2013-01-20 03:09:00,39.6,28.8,30.08,WSW,245,5.9,9.2,65,0.00,CLR,,0.00,WeatherDisplay:10.37,2013-01-20 08:09:00,
2013-01-20 03:14:00,39.6,28.8,30.08,WSW,245,5.1,6.9,65,0.00,CLR,,0.00,WeatherDisplay:10.37,2013-01-20 08:14:00,
2013-01-20 03:19:00,39.7,28.9,30.08,WSW,245,7.5,12.1,65,0.00,CLR,,0.00,WeatherDisplay:10.37,2013-01-20 08:19:00,
2013-01-20 03:24:00,39.9,29.5,30.08,SW,222,13.0,13.0,66,0.00,CLR,,0.00,WeatherDisplay:10.37,2013-01-20 08:24:00,
2013-01-20 03:29:00,39.9,29.5,30.08,West,267,3.4,3.5,66,0.00,CLR,,0.00,WeatherDisplay:10.37,2013-01-20 08:29:00,
2013-01-20 03:34:00,40.1,29.6,30.09,SW,222,4.9,5.8,66,0.00,CLR,,0.00,WeatherDisplay:10.37,2013-01-20 08:34:00,
2013-01-20 03:39:00,40.1,29.6,30.09,WSW,245,5.6,5.8,66,0.00,CLR,,0.00,WeatherDisplay:10.37,2013-01-20 08:39:00,
2013-01-20 03:44:00,40.1,29.6,30.09,West,267,6.8,6.9,66,0.00,CLR,,0.00,WeatherDisplay:10.37,2013-01-20 08:44:00,
2013-01-20 03:49:00,39.9,29.5,30.09,WSW,245,6.3,6.9,66,0.00,CLR,,0.00,WeatherDisplay:10.37,2013-01-20 08:49:00,
2013-01-20 03:54:00,39.9,29.5,30.08,West,267,4.2,4.6,66,0.00,CLR,,0.00,WeatherDisplay:10.37,2013-01-20 08:54:00,
2013-01-20 03:59:00,39.9,29.5,30.09,South,177,2.9,3.5,66,0.00,CLR,,0.00,WeatherDisplay:10.37,2013-01-20 08:59:00,
2013-01-20 04:04:00,39.9,29.8,30.09,WSW,245,8.9,10.4,67,0.00,CLR,,0.00,WeatherDisplay:10.37,2013-01-20 09:04:00,
2013-01-20 04:09:00,39.9,29.8,30.09,WSW,245,8.5,8.5,67,0.00,CLR,,0.00,WeatherDisplay:10.37,2013-01-20 09:09:00,
2013-01-20 04:14:00,39.7,29.7,30.09,SW,222,6.7,6.9,67,0.00,CLR,,0.00,WeatherDisplay:10.37,2013-01-20 09:14:00,
2013-01-20 04:19:00,39.7,29.7,30.09,WSW,245,4.3,4.6,67,0.00,CLR,,0.00,WeatherDisplay:10.37,2013-01-20 09:19:00,
2013-01-20 04:24:00,39.6,29.5,30.10,SW,222,6.4,9.2,67,0.00,CLR,,0.00,WeatherDisplay:10.37,2013-01-20 09:24:00,
2013-01-20 04:29:00,39.6,29.5,30.10,WSW,245,5.8,5.8,67,0.00,CLR,,0.00,WeatherDisplay:10.37,2013-01-20 09:29:00,
2013-01-20 04:34:00,39.4,29.7,30.10,West,267,5.8,5.8,68,0.00,CLR,,0.00,WeatherDisplay:10.37,2013-01-20 09:34:00,
2013-01-20 04:39:00,39.4,29.7,30.10,West,267,4.4,4.6,68,0.00,CLR,,0.00,WeatherDisplay:10.37,2013-01-20 09:39:00,
2013-01-20 04:44:00,39.2,29.5,30.10,SSW,199,3.1,3.5,68,0.00,CLR,,0.00,WeatherDisplay:10.37,2013-01-20 09:44:00,
2013-01-20 04:49:00,39.0,29.3,30.10,WNW,289,6.5,10.4,68,0.00,CLR,,0.00,WeatherDisplay:10.37,2013-01-20 09:49:00,
2013-01-20 04:54:00,38.8,29.5,30.10,West,267,6.0,6.0,69,0.00,CLR,,0.00,WeatherDisplay:10.37,2013-01-20 09:54:00,
2013-01-20 04:59:00,38.8,29.5,30.10,West,267,3.6,3.6,69,0.00,CLR,,0.00,WeatherDisplay:10.37,2013-01-20 09:59:00,
2013-01-20 05:04:00,38.5,29.2,30.10,WSW,245,2.6,5.8,69,0.00,CLR,,0.00,WeatherDisplay:10.37,2013-01-20 10:04:00,
2013-01-20 05:09:00,38.5,29.2,30.10,West,267,4.9,4.9,69,0.00,CLR,,0.00,WeatherDisplay:10.37,2013-01-20 10:09:00,
2013-01-20 05:14:00,38.5,29.5,30.10,SW,222,2.0,2.3,70,0.00,CLR,,0.00,WeatherDisplay:10.37,2013-01-20 10:14:00,
2013-01-20 05:19:00,38.5,29.5,30.11,WSW,245,0.7,2.3,70,0.00,CLR,,0.00,WeatherDisplay:10.37,2013-01-20 10:19:00,
2013-01-20 05:24:00,38.3,29.4,30.10,SW,222,1.6,1.6,70,0.00,CLR,,0.00,WeatherDisplay:10.37,2013-01-20 10:24:00,
2013-01-20 05:29:00,37.9,29.4,30.10,WSW,245,2.0,2.3,71,0.00,CLR,,0.00,WeatherDisplay:10.37,2013-01-20 10:29:00,
2013-01-20 05:34:00,37.9,29.4,30.11,West,267,0.6,1.1,71,0.00,CLR,,0.00,WeatherDisplay:10.37,2013-01-20 10:34:00,
2013-01-20 05:39:00,37.9,29.4,30.11,West,267,4.0,4.0,71,0.00,CLR,,0.00,WeatherDisplay:10.37,2013-01-20 10:39:00,
2013-01-20 05:44:00,37.9,29.7,30.11,West,267,2.3,2.3,72,0.00,CLR,,0.00,WeatherDisplay:10.37,2013-01-20 10:44:00,
2013-01-20 05:49:00,38.1,30.2,30.11,West,267,2.7,4.6,73,0.00,CLR,,0.00,WeatherDisplay:10.37,2013-01-20 10:49:00,
2013-01-20 05:54:00,38.1,30.2,30.11,West,267,0.0,0.0,73,0.00,CLR,,0.00,WeatherDisplay:10.37,2013-01-20 10:54:00,
2013-01-20 05:59:00,38.3,30.4,30.11,NW,312,2.7,3.6,73,0.00,CLR,,0.00,WeatherDisplay:10.37,2013-01-20 10:59:00,
2013-01-20 06:04:00,38.5,30.6,30.12,WNW,289,2.5,2.5,73,0.00,CLR,,0.00,WeatherDisplay:10.37,2013-01-20 11:04:00,
2013-01-20 06:09:00,38.5,30.6,30.12,NNW,335,4.5,4.6,73,0.00,CLR,,0.00,WeatherDisplay:10.37,2013-01-20 11:09:00,
2013-01-20 06:14:00,38.5,30.6,30.12,NW,312,2.5,2.5,73,0.00,CLR,,0.00,WeatherDisplay:10.37,2013-01-20 11:14:00,
2013-01-20 06:19:00,38.3,30.4,30.12,WNW,289,1.4,2.3,73,0.00,CLR,,0.00,WeatherDisplay:10.37,2013-01-20 11:19:00,
2013-01-20 06:24:00,38.1,30.2,30.12,NNW,335,5.4,5.8,73,0.00,CLR,,0.00,WeatherDisplay:10.37,2013-01-20 11:24:00,
2013-01-20 06:29:00,37.9,30.4,30.13,NW,312,3.8,4.0,74,0.00,CLR,,0.00,WeatherDisplay:10.37,2013-01-20 11:29:00,
2013-01-20 06:34:00,37.9,30.1,30.13,NNW,335,3.1,4.6,73,0.00,CLR,,0.00,WeatherDisplay:10.37,2013-01-20 11:34:00,
2013-01-20 06:39:00,37.9,30.1,30.14,NNW,335,5.8,5.8,73,0.00,CLR,,0.00,WeatherDisplay:10.37,2013-01-20 11:39:00,
2013-01-20 06:44:00,37.9,29.7,30.14,NW,312,4.0,4.0,72,0.00,CLR,,0.00,WeatherDisplay:10.37,2013-01-20 11:44:00,
2013-01-20 06:49:00,37.8,29.5,30.14,NW,312,3.4,3.5,72,0.00,CLR,,0.00,WeatherDisplay:10.37,2013-01-20 11:49:00,
2013-01-20 06:54:00,37.6,29.0,30.14,WNW,289,5.1,5.1,71,0.00,CLR,,0.00,WeatherDisplay:10.37,2013-01-20 11:54:00,
2013-01-20 06:59:00,37.2,28.7,30.14,WNW,289,3.7,6.0,71,0.00,CLR,,0.00,WeatherDisplay:10.37,2013-01-20 11:59:00,
2013-01-20 07:04:00,37.2,28.3,30.14,NW,312,3.2,3.5,70,0.00,CLR,,0.00,WeatherDisplay:10.37,2013-01-20 12:04:00,
2013-01-20 07:09:00,37.2,28.0,30.14,NW,312,4.5,4.6,69,0.00,CLR,,0.00,WeatherDisplay:10.37,2013-01-20 12:09:00,
2013-01-20 07:14:00,37.0,27.8,30.15,WNW,289,0.0,0.0,69,0.00,CLR,,0.00,WeatherDisplay:10.37,2013-01-20 12:14:00,
2013-01-20 07:19:00,36.7,27.5,30.15,WNW,289,0.0,0.0,69,0.00,CLR,,0.00,WeatherDisplay:10.37,2013-01-20 12:19:00,
2013-01-20 07:24:00,36.3,27.5,30.15,WNW,289,0.0,0.0,70,0.00,CLR,,0.00,WeatherDisplay:10.37,2013-01-20 12:24:00,
2013-01-20 07:29:00,36.1,27.3,30.15,West,267,0.0,0.0,70,0.00,CLR,,0.00,WeatherDisplay:10.37,2013-01-20 12:29:00,
2013-01-20 07:34:00,36.0,27.1,30.16,WNW,289,3.7,4.6,70,0.00,CLR,,0.00,WeatherDisplay:10.37,2013-01-20 12:34:00,
2013-01-20 07:39:00,36.0,27.1,30.16,North,357,1.6,1.6,70,0.00,CLR,,0.00,WeatherDisplay:10.37,2013-01-20 12:39:00,
2013-01-20 07:44:00,35.8,26.9,30.16,NW,312,2.3,2.3,70,0.00,CLR,,0.00,WeatherDisplay:10.37,2013-01-20 12:44:00,
2013-01-20 07:49:00,35.8,26.6,30.16,NW,312,0.2,2.3,69,0.00,CLR,,0.00,WeatherDisplay:10.37,2013-01-20 12:49:00,
2013-01-20 07:54:00,35.4,26.3,30.16,West,267,0.0,0.0,69,0.00,CLR,,0.00,WeatherDisplay:10.37,2013-01-20 12:54:00,
2013-01-20 07:59:00,35.4,26.3,30.17,WNW,289,0.0,1.8,69,0.00,CLR,,0.00,WeatherDisplay:10.37,2013-01-20 12:59:00,
2013-01-20 08:04:00,35.2,26.1,30.17,NW,312,2.1,2.3,69,0.00,CLR,,0.00,WeatherDisplay:10.37,2013-01-20 13:04:00,
2013-01-20 08:09:00,34.9,25.4,30.17,NW,312,9.2,9.2,68,0.00,FEW,,0.00,WeatherDisplay:10.37,2013-01-20 13:09:00,
2013-01-20 08:14:00,34.9,25.4,30.17,NW,312,3.1,3.5,68,0.00,FEW,,0.00,WeatherDisplay:10.37,2013-01-20 13:14:00,
2013-01-20 08:19:00,34.9,25.4,30.17,NW,312,1.4,2.5,68,0.00,FEW,,0.00,WeatherDisplay:10.37,2013-01-20 13:19:00,
2013-01-20 08:24:00,34.9,25.4,30.17,WNW,289,1.3,2.3,68,0.00,FEW,,0.00,WeatherDisplay:10.37,2013-01-20 13:24:00,
2013-01-20 08:29:00,34.9,25.0,30.17,WNW,289,2.5,3.5,67,0.00,FEW,,0.00,WeatherDisplay:10.37,2013-01-20 13:29:00,
2013-01-20 08:34:00,34.9,25.0,30.18,NW,312,3.1,6.9,67,0.00,FEW,,0.00,WeatherDisplay:10.37,2013-01-20 13:34:00,
2013-01-20 08:39:00,34.9,25.0,30.18,NNE,19,4.2,4.6,67,0.00,FEW,,0.00,WeatherDisplay:10.37,2013-01-20 13:39:00,
2013-01-20 08:44:00,35.2,25.0,30.18,West,267,5.9,5.9,66,0.00,FEW,,0.00,WeatherDisplay:10.37,2013-01-20 13:44:00,
2013-01-20 08:49:00,35.2,24.6,30.18,NW,312,5.8,5.8,65,0.00,FEW,,0.00,WeatherDisplay:10.37,2013-01-20 13:49:00,
2013-01-20 08:54:00,35.2,24.3,30.18,NNW,335,8.3,8.3,64,0.00,FEW,,0.00,WeatherDisplay:10.37,2013-01-20 13:54:00,
2013-01-20 08:59:00,35.4,24.4,30.18,SW,222,5.5,5.8,64,0.00,FEW,,0.00,WeatherDisplay:10.37,2013-01-20 13:59:00,
2013-01-20 09:04:00,35.8,24.4,30.18,WNW,289,3.8,6.9,63,0.00,FEW,,0.00,WeatherDisplay:10.37,2013-01-20 14:04:00,
2013-01-20 09:09:00,35.8,24.0,30.19,NW,312,6.0,6.0,62,0.00,CLR,,0.00,WeatherDisplay:10.37,2013-01-20 14:09:00,
2013-01-20 09:14:00,36.0,24.2,30.20,WNW,289,6.0,9.2,62,0.00,CLR,,0.00,WeatherDisplay:10.37,2013-01-20 14:14:00,
2013-01-20 09:19:00,36.1,24.0,30.20,West,267,11.6,11.6,61,0.00,CLR,,0.00,WeatherDisplay:10.37,2013-01-20 14:19:00,
2013-01-20 09:24:00,36.1,24.0,30.20,WSW,245,4.5,5.8,61,0.00,CLR,,0.00,WeatherDisplay:10.37,2013-01-20 14:24:00,
2013-01-20 09:29:00,36.1,24.0,30.20,West,267,6.3,11.5,61,0.00,CLR,,0.00,WeatherDisplay:10.37,2013-01-20 14:29:00,
2013-01-20 09:34:00,36.1,24.0,30.20,West,267,6.3,11.5,61,0.00,CLR,,0.00,WeatherDisplay:10.37,2013-01-20 14:34:00,
2013-01-20 09:39:00,36.1,24.0,30.20,West,267,6.3,11.5,61,0.00,CLR,,0.00,WeatherDisplay:10.37,2013-01-20 14:39:00,
2013-01-20 09:44:00,36.5,24.3,30.21,West,267,6.3,11.5,61,0.00,CLR,,0.00,WeatherDisplay:10.37,2013-01-20 14:44:00,
2013-01-20 09:49:00,36.5,24.3,30.21,West,267,6.3,11.5,61,0.00,CLR,,0.00,WeatherDisplay:10.37,2013-01-20 14:49:00,
2013-01-20 09:54:00,36.5,21.4,30.21,NW,312,8.5,10.4,54,0.00,CLR,,0.00,WeatherDisplay:10.37,2013-01-20 14:54:00,
2013-01-20 09:59:00,37.0,21.9,30.21,WNW,289,6.1,6.1,54,0.00,CLR,,0.00,WeatherDisplay:10.37,2013-01-20 14:59:00,
2013-01-20 10:04:00,36.9,21.3,30.22,NNW,335,14.9,17.3,53,0.00,CLR,,0.00,WeatherDisplay:10.37,2013-01-20 15:04:00,
2013-01-20 10:09:00,36.9,21.3,30.21,NNW,335,4.4,11.8,53,0.00,SCT,,0.00,WeatherDisplay:10.37,2013-01-20 15:09:00,
2013-01-20 10:14:00,36.9,21.3,30.22,WNW,289,4.1,10.3,53,0.00,SCT,,0.00,WeatherDisplay:10.37,2013-01-20 15:14:00,
2013-01-20 10:19:00,37.2,21.6,30.21,NNW,335,8.5,12.7,53,0.00,SCT,,0.00,WeatherDisplay:10.37,2013-01-20 15:19:00,
2013-01-20 10:24:00,37.0,21.5,30.22,West,267,10.7,10.7,53,0.00,SCT,,0.00,WeatherDisplay:10.37,2013-01-20 15:24:00,
2013-01-20 10:29:00,37.2,22.1,30.22,WNW,289,6.5,6.7,54,0.00,SCT,,0.00,WeatherDisplay:10.37,2013-01-20 15:29:00,
2013-01-20 10:34:00,37.2,22.1,30.22,NW,312,4.9,8.1,54,0.00,SCT,,0.00,WeatherDisplay:10.37,2013-01-20 15:34:00,
2013-01-20 10:39:00,37.6,22.4,30.23,NNW,335,4.7,4.7,54,0.00,SCT,,0.00,WeatherDisplay:10.37,2013-01-20 15:39:00,
2013-01-20 10:44:00,38.1,22.9,30.23,West,267,6.9,8.1,54,0.00,SCT,,0.00,WeatherDisplay:10.37,2013-01-20 15:44:00,
2013-01-20 10:49:00,38.1,22.5,30.23,NNW,335,5.6,5.8,53,0.00,SCT,,0.00,WeatherDisplay:10.37,2013-01-20 15:49:00,
2013-01-20 10:54:00,38.3,22.6,30.24,West,267,9.2,9.2,53,0.00,SCT,,0.00,WeatherDisplay:10.37,2013-01-20 15:54:00,
2013-01-20 10:59:00,38.5,22.8,30.24,SW,222,7.0,10.4,53,0.00,SCT,,0.00,WeatherDisplay:10.37,2013-01-20 15:59:00,
2013-01-20 11:04:00,39.0,23.3,30.23,NNW,335,0.0,0.0,53,0.00,SCT,,0.00,WeatherDisplay:10.37,2013-01-20 16:04:00,
2013-01-20 11:09:00,39.0,22.9,30.23,NNW,335,7.6,9.2,52,0.00,SCT,,0.00,WeatherDisplay:10.37,2013-01-20 16:09:00,
2013-01-20 11:14:00,38.8,22.7,30.23,WSW,245,4.5,5.8,52,0.00,SCT,,0.00,WeatherDisplay:10.37,2013-01-20 16:14:00,
2013-01-20 11:19:00,39.0,22.9,30.23,WNW,289,0.0,5.8,52,0.00,SCT,,0.00,WeatherDisplay:10.37,2013-01-20 16:19:00,
2013-01-20 11:24:00,39.2,22.6,30.24,NW,312,10.4,10.4,51,0.00,SCT,,0.00,WeatherDisplay:10.37,2013-01-20 16:24:00,
2013-01-20 11:29:00,39.4,22.3,30.24,SW,222,5.2,5.8,50,0.00,SCT,,0.00,WeatherDisplay:10.37,2013-01-20 16:29:00,
2013-01-20 11:34:00,39.6,22.0,30.24,NNW,335,7.8,8.1,49,0.00,SCT,,0.00,WeatherDisplay:10.37,2013-01-20 16:34:00,
2013-01-20 11:39:00,39.6,21.5,30.24,NW,312,6.2,6.2,48,0.00,SCT,,0.00,WeatherDisplay:10.37,2013-01-20 16:39:00,
2013-01-20 11:44:00,39.7,21.1,30.23,North,357,5.2,5.8,47,0.00,SCT,,0.00,WeatherDisplay:10.37,2013-01-20 16:44:00,
2013-01-20 11:49:00,39.9,21.8,30.23,West,267,5.8,5.8,48,0.00,SCT,,0.00,WeatherDisplay:10.37,2013-01-20 16:49:00,
2013-01-20 11:54:00,40.6,20.4,30.23,NNW,335,7.8,12.3,44,0.00,SCT,,0.00,WeatherDisplay:10.37,2013-01-20 16:54:00,
2013-01-20 11:59:00,40.3,20.6,30.23,NW,312,5.8,6.9,45,0.00,SCT,,0.00,WeatherDisplay:10.37,2013-01-20 16:59:00,
2013-01-20 12:04:00,40.6,19.9,30.23,NW,312,7.4,7.4,43,0.00,SCT,,0.00,WeatherDisplay:10.37,2013-01-20 17:04:00,
2013-01-20 12:09:00,40.3,19.5,30.22,NW,312,1.0,4.0,43,0.00,SCT,,0.00,WeatherDisplay:10.37,2013-01-20 17:09:00,
2013-01-20 12:14:00,40.6,19.3,30.22,WNW,289,3.6,6.3,42,0.00,SCT,,0.00,WeatherDisplay:10.37,2013-01-20 17:14:00,
2013-01-20 12:19:00,40.8,19.5,30.22,WSW,245,6.5,6.9,42,0.00,SCT,,0.00,WeatherDisplay:10.37,2013-01-20 17:19:00,
2013-01-20 12:24:00,41.2,20.9,30.21,West,267,3.9,5.1,44,0.00,SCT,,0.00,WeatherDisplay:10.37,2013-01-20 17:24:00,
2013-01-20 12:29:00,41.2,18.7,30.21,NNW,335,9.5,10.4,40,0.00,SCT,,0.00,WeatherDisplay:10.37,2013-01-20 17:29:00,
2013-01-20 12:34:00,40.8,18.9,30.21,NW,312,3.4,3.5,41,0.00,SCT,,0.00,WeatherDisplay:10.37,2013-01-20 17:34:00,
2013-01-20 12:39:00,40.8,17.7,30.21,North,357,8.9,9.2,39,0.00,SCT,,0.00,WeatherDisplay:10.37,2013-01-20 17:39:00,
2013-01-20 12:44:00,40.6,17.6,30.20,ENE,65,5.6,8.1,39,0.00,SCT,,0.00,WeatherDisplay:10.37,2013-01-20 17:44:00,
2013-01-20 12:49:00,41.2,19.2,30.20,SSW,199,0.0,3.5,41,0.00,SCT,,0.00,WeatherDisplay:10.37,2013-01-20 17:49:00,
2013-01-20 12:54:00,41.4,18.2,30.20,NW,312,6.5,8.9,39,0.00,SCT,,0.00,WeatherDisplay:10.37,2013-01-20 17:54:00,
2013-01-20 12:59:00,41.2,18.1,30.21,NW,312,6.6,8.1,39,0.00,SCT,,0.00,WeatherDisplay:10.37,2013-01-20 17:59:00,
2013-01-20 13:04:00,41.2,18.1,30.21,West,267,4.7,4.7,39,0.00,SCT,,0.00,WeatherDisplay:10.37,2013-01-20 18:04:00,
2013-01-20 13:09:00,41.7,19.1,30.20,West,267,2.0,6.3,40,0.00,CLR,,0.00,WeatherDisplay:10.37,2013-01-20 18:09:00,
2013-01-20 13:14:00,41.9,18.7,30.20,NNW,335,5.3,6.9,39,0.00,CLR,,0.00,WeatherDisplay:10.37,2013-01-20 18:14:00,
2013-01-20 13:19:00,41.9,18.1,30.20,NW,312,8.4,8.4,38,0.00,CLR,,0.00,WeatherDisplay:10.37,2013-01-20 18:19:00,
2013-01-20 13:24:00,41.9,18.7,30.19,NW,312,1.6,3.1,39,0.00,CLR,,0.00,WeatherDisplay:10.37,2013-01-20 18:24:00,
2013-01-20 13:29:00,42.1,19.5,30.19,West,267,2.9,5.8,40,0.00,CLR,,0.00,WeatherDisplay:10.37,2013-01-20 18:29:00,
2013-01-20 13:34:00,42.4,20.4,30.19,SW,222,7.8,8.1,41,0.00,CLR,,0.00,WeatherDisplay:10.37,2013-01-20 18:34:00,
2013-01-20 13:39:00,42.4,19.8,30.19,West,267,0.0,0.0,40,0.00,CLR,,0.00,WeatherDisplay:10.37,2013-01-20 18:39:00,
2013-01-20 13:44:00,42.4,20.4,30.19,WNW,289,2.8,3.5,41,0.00,CLR,,0.00,WeatherDisplay:10.37,2013-01-20 18:44:00,
2013-01-20 13:49:00,42.4,20.4,30.18,SW,222,2.5,3.5,41,0.00,CLR,,0.00,WeatherDisplay:10.37,2013-01-20 18:49:00,
2013-01-20 13:54:00,42.6,20.0,30.18,NW,312,5.5,5.8,40,0.00,CLR,,0.00,WeatherDisplay:10.37,2013-01-20 18:54:00,
2013-01-20 13:59:00,42.6,20.0,30.18,WNW,289,8.5,12.7,40,0.00,CLR,,0.00,WeatherDisplay:10.37,2013-01-20 18:59:00,
2013-01-20 14:04:00,42.6,19.4,30.18,NW,312,5.7,6.0,39,0.00,CLR,,0.00,WeatherDisplay:10.37,2013-01-20 19:04:00,
2013-01-20 14:09:00,42.4,19.2,30.18,West,267,5.8,5.8,39,0.00,SCT,,0.00,WeatherDisplay:10.37,2013-01-20 19:09:00,
2013-01-20 14:14:00,42.4,19.2,30.18,WSW,245,2.9,4.6,39,0.00,SCT,,0.00,WeatherDisplay:10.37,2013-01-20 19:14:00,
2013-01-20 14:19:00,42.6,19.4,30.18,West,267,7.6,8.1,39,0.00,SCT,,0.00,WeatherDisplay:10.37,2013-01-20 19:19:00,
2013-01-20 14:24:00,42.6,18.8,30.18,West,267,2.9,3.5,38,0.00,SCT,,0.00,WeatherDisplay:10.37,2013-01-20 19:24:00,
2013-01-20 14:29:00,42.4,18.0,30.18,West,267,0.7,2.3,37,0.00,SCT,,0.00,WeatherDisplay:10.37,2013-01-20 19:29:00,
2013-01-20 14:34:00,42.4,18.0,30.18,NW,312,7.8,8.1,37,0.00,SCT,,0.00,WeatherDisplay:10.37,2013-01-20 19:34:00,
2013-01-20 14:39:00,42.6,17.5,30.18,WNW,289,5.3,5.8,36,0.00,SCT,,0.00,WeatherDisplay:10.37,2013-01-20 19:39:00,
2013-01-20 14:44:00,42.6,18.1,30.18,NNW,335,3.1,8.0,37,0.00,SCT,,0.00,WeatherDisplay:10.37,2013-01-20 19:44:00,
2013-01-20 14:49:00,42.6,16.8,30.18,NNW,335,4.5,4.6,35,0.00,SCT,,0.00,WeatherDisplay:10.37,2013-01-20 19:49:00,
2013-01-20 14:54:00,42.4,16.7,30.18,West,267,0.0,0.0,35,0.00,SCT,,0.00,WeatherDisplay:10.37,2013-01-20 19:54:00,
2013-01-20 14:59:00,42.6,18.1,30.18,West,267,3.8,4.6,37,0.00,SCT,,0.00,WeatherDisplay:10.37,2013-01-20 19:59:00,
2013-01-20 15:04:00,43.2,18.6,30.18,West,267,4.2,4.6,37,0.00,SCT,,0.00,WeatherDisplay:10.37,2013-01-20 20:04:00,
2013-01-20 15:09:00,43.7,18.5,30.18,SW,222,6.5,6.9,36,0.00,CLR,,0.00,WeatherDisplay:10.37,2013-01-20 20:09:00,
2013-01-20 15:14:00,43.7,18.5,30.17,NNW,335,2.7,4.6,36,0.00,CLR,,0.00,WeatherDisplay:10.37,2013-01-20 20:14:00,
2013-01-20 15:19:00,43.5,17.6,30.16,ENE,65,0.0,0.0,35,0.00,CLR,,0.00,WeatherDisplay:10.37,2013-01-20 20:19:00,
2013-01-20 15:24:00,43.3,17.5,30.16,ENE,65,2.4,2.4,35,0.00,CLR,,0.00,WeatherDisplay:10.37,2013-01-20 20:24:00,
2013-01-20 15:29:00,43.5,18.3,30.16,SW,222,3.4,3.5,36,0.00,CLR,,0.00,WeatherDisplay:10.37,2013-01-20 20:29:00,
2013-01-20 15:34:00,44.1,19.4,30.16,SE,132,0.0,0.0,37,0.00,CLR,,0.00,WeatherDisplay:10.37,2013-01-20 20:34:00,
2013-01-20 15:39:00,44.4,19.1,30.16,West,267,0.0,0.0,36,0.00,CLR,,0.00,WeatherDisplay:10.37,2013-01-20 20:39:00,
2013-01-20 15:44:00,44.2,18.3,30.16,WNW,289,0.7,2.3,35,0.00,CLR,,0.00,WeatherDisplay:10.37,2013-01-20 20:44:00,
2013-01-20 15:49:00,43.7,17.8,30.16,NNW,335,1.3,1.3,35,0.00,CLR,,0.00,WeatherDisplay:10.37,2013-01-20 20:49:00,
2013-01-20 15:54:00,43.5,18.3,30.16,WNW,289,1.9,2.9,36,0.00,CLR,,0.00,WeatherDisplay:10.37,2013-01-20 20:54:00,
2013-01-20 15:59:00,43.5,17.6,30.16,West,267,3.3,3.5,35,0.00,CLR,,0.00,WeatherDisplay:10.37,2013-01-20 20:59:00,
2013-01-20 16:04:00,43.5,18.9,30.16,SW,222,1.6,1.6,37,0.00,CLR,,0.00,WeatherDisplay:10.37,2013-01-20 21:04:00,
2013-01-20 16:09:00,43.5,18.3,30.16,North,357,0.6,2.3,36,0.00,CLR,,0.00,WeatherDisplay:10.37,2013-01-20 21:09:00,
2013-01-20 16:14:00,43.5,18.3,30.16,WSW,245,0.9,2.3,36,0.00,CLR,,0.00,WeatherDisplay:10.37,2013-01-20 21:14:00,
2013-01-20 16:19:00,43.5,18.3,30.16,WNW,289,0.0,0.0,36,0.00,CLR,,0.00,WeatherDisplay:10.37,2013-01-20 21:19:00,
2013-01-20 16:24:00,43.3,18.1,30.16,WSW,245,4.3,4.6,36,0.00,CLR,,0.00,WeatherDisplay:10.37,2013-01-20 21:24:00,
2013-01-20 16:29:00,43.2,18.0,30.16,WNW,289,4.4,4.6,36,0.00,CLR,,0.00,WeatherDisplay:10.37,2013-01-20 21:29:00,
2013-01-20 16:34:00,43.0,17.8,30.16,West,267,4.2,4.6,36,0.00,CLR,,0.00,WeatherDisplay:10.37,2013-01-20 21:34:00,
2013-01-20 16:39:00,42.6,17.5,30.17,WSW,245,1.6,1.6,36,0.00,CLR,,0.00,WeatherDisplay:10.37,2013-01-20 21:39:00,
2013-01-20 16:44:00,42.6,17.5,30.17,NW,312,2.2,5.8,36,0.00,CLR,,0.00,WeatherDisplay:10.37,2013-01-20 21:44:00,
2013-01-20 16:49:00,42.6,17.5,30.17,North,357,2.0,4.7,36,0.00,CLR,,0.00,WeatherDisplay:10.37,2013-01-20 21:49:00,
2013-01-20 16:54:00,42.1,17.0,30.17,WNW,289,3.4,3.5,36,0.00,CLR,,0.00,WeatherDisplay:10.37,2013-01-20 21:54:00,
2013-01-20 16:59:00,42.1,17.6,30.17,West,267,0.8,3.5,37,0.00,CLR,,0.00,WeatherDisplay:10.37,2013-01-20 21:59:00,
2013-01-20 17:04:00,41.9,17.5,30.17,West,267,2.5,2.5,37,0.00,CLR,,0.00,WeatherDisplay:10.37,2013-01-20 22:04:00,
2013-01-20 17:09:00,41.7,17.3,30.18,West,267,2.1,2.3,37,0.00,CLR,,0.00,WeatherDisplay:10.37,2013-01-20 22:09:00,
2013-01-20 17:14:00,41.5,17.2,30.18,SW,222,0.0,2.3,37,0.00,CLR,,0.00,WeatherDisplay:10.37,2013-01-20 22:14:00,
2013-01-20 17:19:00,41.4,17.6,30.18,NNW,335,4.0,4.0,38,0.00,CLR,,0.00,WeatherDisplay:10.37,2013-01-20 22:19:00,
2013-01-20 17:24:00,41.0,17.3,30.18,NW,312,2.1,3.5,38,0.00,CLR,,0.00,WeatherDisplay:10.37,2013-01-20 22:24:00,
2013-01-20 17:29:00,40.8,17.1,30.18,NW,312,2.7,2.7,38,0.00,CLR,,0.00,WeatherDisplay:10.37,2013-01-20 22:29:00,
2013-01-20 17:34:00,40.8,17.1,30.18,NW,312,0.0,1.6,38,0.00,CLR,,0.00,WeatherDisplay:10.37,2013-01-20 22:34:00,
2013-01-20 17:39:00,40.5,16.8,30.18,NW,312,1.1,3.4,38,0.00,CLR,,0.00,WeatherDisplay:10.37,2013-01-20 22:39:00,
2013-01-20 17:44:00,40.3,17.3,30.18,West,267,0.0,0.0,39,0.00,CLR,,0.00,WeatherDisplay:10.37,2013-01-20 22:44:00,
2013-01-20 17:49:00,39.9,16.3,30.18,WNW,289,2.2,2.3,38,0.00,CLR,,0.00,WeatherDisplay:10.37,2013-01-20 22:49:00,
2013-01-20 17:54:00,39.6,16.6,30.18,NW,312,3.1,3.5,39,0.00,CLR,,0.00,WeatherDisplay:10.37,2013-01-20 22:54:00,
2013-01-20 17:59:00,39.0,16.1,30.18,West,267,0.0,0.0,39,0.00,CLR,,0.00,WeatherDisplay:10.37,2013-01-20 22:59:00,
2013-01-20 18:04:00,38.8,16.0,30.18,WNW,289,2.9,3.5,39,0.00,CLR,,0.00,WeatherDisplay:10.37,2013-01-20 23:04:00,
2013-01-20 18:09:00,38.5,15.6,30.18,NNW,335,2.0,3.5,39,0.00,CLR,,0.00,WeatherDisplay:10.37,2013-01-20 23:09:00,
2013-01-20 18:14:00,38.1,15.3,30.18,NW,312,0.0,0.0,39,0.00,CLR,,0.00,WeatherDisplay:10.37,2013-01-20 23:14:00,
2013-01-20 18:19:00,37.9,15.1,30.18,NW,312,1.6,1.6,39,0.00,CLR,,0.00,WeatherDisplay:10.37,2013-01-20 23:19:00,
2013-01-20 18:24:00,37.6,14.8,30.18,NW,312,0.0,0.0,39,0.00,CLR,,0.00,WeatherDisplay:10.37,2013-01-20 23:24:00,
2013-01-20 18:29:00,37.4,14.7,30.18,WNW,289,3.0,3.5,39,0.00,CLR,,0.00,WeatherDisplay:10.37,2013-01-20 23:29:00,
2013-01-20 18:35:00,37.2,14.5,30.19,WNW,289,5.1,5.1,39,0.00,CLR,,0.00,WeatherDisplay:10.37,2013-01-20 23:35:00,
2013-01-20 18:40:00,36.9,14.8,30.19,WNW,289,4.3,4.6,40,0.00,CLR,,0.00,WeatherDisplay:10.37,2013-01-20 23:40:00,
2013-01-20 18:45:00,36.7,14.6,30.19,NW,312,5.8,5.8,40,0.00,CLR,,0.00,WeatherDisplay:10.37,2013-01-20 23:45:00,
2013-01-20 18:50:00,36.3,14.8,30.19,WNW,289,3.6,3.6,41,0.00,CLR,,0.00,WeatherDisplay:10.37,2013-01-20 23:50:00,
2013-01-20 18:55:00,36.0,14.5,30.20,NW,312,7.6,8.1,41,0.00,CLR,,0.00,WeatherDisplay:10.37,2013-01-20 23:55:00,
2013-01-20 19:00:00,35.8,14.3,30.20,SSW,199,3.6,3.6,41,0.00,CLR,,0.00,WeatherDisplay:10.37,2013-01-21 00:00:00,
2013-01-20 19:05:00,35.4,14.0,30.20,West,267,8.0,8.1,41,0.00,CLR,,0.00,WeatherDisplay:10.37,2013-01-21 00:05:00,
2013-01-20 19:10:00,35.2,13.9,30.20,NNW,335,4.4,4.7,41,0.00,CLR,,0.00,WeatherDisplay:10.37,2013-01-21 00:10:00,
2013-01-20 19:15:00,35.2,13.9,30.20,WNW,289,3.4,3.5,41,0.00,CLR,,0.00,WeatherDisplay:10.37,2013-01-21 00:15:00,
2013-01-20 19:20:00,34.7,13.4,30.20,NW,312,3.0,3.5,41,0.00,CLR,,0.00,WeatherDisplay:10.37,2013-01-21 00:20:00,
2013-01-20 19:25:00,34.3,13.6,30.20,WNW,289,4.4,9.2,42,0.00,CLR,,0.00,WeatherDisplay:10.37,2013-01-21 00:25:00,
2013-01-20 19:30:00,34.3,13.6,30.20,WNW,289,6.9,6.9,42,0.00,CLR,,0.00,WeatherDisplay:10.37,2013-01-21 00:30:00,
2013-01-20 19:35:00,34.0,13.8,30.21,WNW,289,5.4,8.3,43,0.00,CLR,,0.00,WeatherDisplay:10.37,2013-01-21 00:35:00,
2013-01-20 19:40:00,33.6,13.5,30.20,West,267,3.3,4.6,43,0.00,CLR,,0.00,WeatherDisplay:10.37,2013-01-21 00:40:00,
2013-01-20 19:45:00,33.6,14.0,30.19,WNW,289,2.0,3.5,44,0.00,CLR,,0.00,WeatherDisplay:10.37,2013-01-21 00:45:00,
2013-01-20 19:50:00,33.3,13.7,30.20,WNW,289,4.3,4.6,44,0.00,CLR,,0.00,WeatherDisplay:10.37,2013-01-21 00:50:00,
2013-01-20 19:55:00,32.9,13.9,30.20,NW,312,4.8,6.3,45,0.00,CLR,,0.00,WeatherDisplay:10.37,2013-01-21 00:55:00,
2013-01-20 20:00:00,32.7,13.7,30.19,NW,312,6.0,6.0,45,0.00,CLR,,0.00,WeatherDisplay:10.37,2013-01-21 01:00:00,
2013-01-20 20:05:00,32.5,13.5,30.19,NNW,335,3.6,3.6,45,0.00,CLR,,0.00,WeatherDisplay:10.37,2013-01-21 01:05:00,
2013-01-20 20:10:00,32.4,13.9,30.19,NE,42,0.8,3.5,46,0.00,FEW,,0.00,WeatherDisplay:10.37,2013-01-21 01:10:00,
2013-01-20 20:15:00,32.4,13.9,30.19,NNW,335,3.1,3.5,46,0.00,FEW,,0.00,WeatherDisplay:10.37,2013-01-21 01:15:00,
2013-01-20 20:20:00,32.2,13.7,30.19,NW,312,4.0,4.6,46,0.00,FEW,,0.00,WeatherDisplay:10.37,2013-01-21 01:20:00,
2013-01-20 20:25:00,32.2,13.7,30.19,NW,312,3.6,3.8,46,0.00,FEW,,0.00,WeatherDisplay:10.37,2013-01-21 01:25:00,
2013-01-20 20:30:00,31.8,13.4,30.20,NNW,335,4.7,4.7,46,0.00,FEW,,0.00,WeatherDisplay:10.37,2013-01-21 01:30:00,
2013-01-20 20:35:00,31.8,13.4,30.20,NW,312,3.6,3.6,46,0.00,FEW,,0.00,WeatherDisplay:10.37,2013-01-21 01:35:00,
2013-01-20 20:40:00,31.6,13.2,30.19,NW,312,3.6,3.6,46,0.00,FEW,,0.00,WeatherDisplay:10.37,2013-01-21 01:40:00,
2013-01-20 20:45:00,31.6,13.7,30.20,NNW,335,2.2,2.3,47,0.00,FEW,,0.00,WeatherDisplay:10.37,2013-01-21 01:45:00,
2013-01-20 20:50:00,31.3,13.4,30.19,NNW,335,4.0,4.7,47,0.00,FEW,,0.00,WeatherDisplay:10.37,2013-01-21 01:50:00,
2013-01-20 20:55:00,31.3,13.4,30.18,NNW,335,5.9,6.9,47,0.00,FEW,,0.00,WeatherDisplay:10.37,2013-01-21 01:55:00,
2013-01-20 21:00:00,31.3,13.4,30.19,NW,312,8.3,8.3,47,0.00,FEW,,0.00,WeatherDisplay:10.37,2013-01-21 02:00:00,
2013-01-20 21:05:00,31.1,13.2,30.19,NNW,335,3.1,3.5,47,0.00,FEW,,0.00,WeatherDisplay:10.37,2013-01-21 02:05:00,
2013-01-20 21:10:00,30.9,13.0,30.19,NW,312,7.4,7.4,47,0.00,CLR,,0.00,WeatherDisplay:10.37,2013-01-21 02:10:00,
2013-01-20 21:15:00,30.7,12.9,30.19,North,357,4.5,6.9,47,0.00,CLR,,0.00,WeatherDisplay:10.37,2013-01-21 02:15:00,
2013-01-20 21:20:00,30.7,13.3,30.19,NW,312,6.7,6.9,48,0.00,CLR,,0.00,WeatherDisplay:10.37,2013-01-21 02:20:00,
2013-01-20 21:25:00,30.6,13.2,30.19,North,357,4.0,4.2,48,0.00,CLR,,0.00,WeatherDisplay:10.37,2013-01-21 02:25:00,
2013-01-20 21:30:00,30.4,13.0,30.19,NNW,335,4.2,4.6,48,0.00,CLR,,0.00,WeatherDisplay:10.37,2013-01-21 02:30:00,
2013-01-20 21:35:00,30.2,12.8,30.19,NW,312,7.5,8.0,48,0.00,CLR,,0.00,WeatherDisplay:10.37,2013-01-21 02:35:00,
2013-01-20 21:40:00,30.2,12.8,30.20,NW,312,1.3,8.1,48,0.00,CLR,,0.00,WeatherDisplay:10.37,2013-01-21 02:40:00,
2013-01-20 21:45:00,30.0,13.1,30.20,NNW,335,6.9,6.9,49,0.00,CLR,,0.00,WeatherDisplay:10.37,2013-01-21 02:45:00,
2013-01-20 21:50:00,30.0,13.1,30.20,NW,312,5.0,8.3,49,0.00,CLR,,0.00,WeatherDisplay:10.37,2013-01-21 02:50:00,
2013-01-20 21:55:00,29.8,13.0,30.20,NNW,335,3.1,4.6,49,0.00,CLR,,0.00,WeatherDisplay:10.37,2013-01-21 02:55:00,
2013-01-20 22:00:00,29.8,13.0,30.19,NNW,335,3.1,3.5,49,0.00,CLR,,0.00,WeatherDisplay:10.37,2013-01-21 03:00:00,
2013-01-20 22:05:00,29.5,12.6,30.19,NNW,335,3.1,3.5,49,0.00,CLR,,0.00,WeatherDisplay:10.37,2013-01-21 03:05:00,
2013-01-20 22:10:00,29.5,12.6,30.19,NNE,19,3.2,3.5,49,0.00,CLR,,0.00,WeatherDisplay:10.37,2013-01-21 03:10:00,
2013-01-20 22:15:00,29.3,12.5,30.19,NNE,19,3.8,3.8,49,0.00,CLR,,0.00,WeatherDisplay:10.37,2013-01-21 03:15:00,
2013-01-20 22:20:00,29.1,12.8,30.18,North,357,2.5,2.5,50,0.00,CLR,,0.00,WeatherDisplay:10.37,2013-01-21 03:20:00,
2013-01-20 22:25:00,28.9,12.6,30.18,NNE,19,3.6,3.6,50,0.00,CLR,,0.00,WeatherDisplay:10.37,2013-01-21 03:25:00,
2013-01-20 22:30:00,28.9,12.6,30.18,North,357,0.9,2.3,50,0.00,CLR,,0.00,WeatherDisplay:10.37,2013-01-21 03:30:00,
2013-01-20 22:35:00,28.8,12.4,30.18,NNW,335,2.3,3.8,50,0.00,CLR,,0.00,WeatherDisplay:10.37,2013-01-21 03:35:00,
2013-01-20 22:40:00,28.6,12.3,30.18,North,357,0.0,1.1,50,0.00,CLR,,0.00,WeatherDisplay:10.37,2013-01-21 03:40:00,
2013-01-20 22:45:00,28.6,12.7,30.18,North,357,0.0,0.0,51,0.00,CLR,,0.00,WeatherDisplay:10.37,2013-01-21 03:45:00,
2013-01-20 22:50:00,28.2,12.4,30.18,North,357,3.9,3.9,51,0.00,CLR,,0.00,WeatherDisplay:10.37,2013-01-21 03:50:00,
2013-01-20 22:55:00,28.2,12.4,30.18,North,357,1.3,3.5,51,0.00,CLR,,0.00,WeatherDisplay:10.37,2013-01-21 03:55:00,
2013-01-20 23:00:00,28.2,12.4,30.17,North,357,2.3,3.5,51,0.00,CLR,,0.00,WeatherDisplay:10.37,2013-01-21 04:00:00,
2013-01-20 23:05:00,28.2,12.8,30.17,North,357,0.5,2.2,52,0.00,CLR,,0.00,WeatherDisplay:10.37,2013-01-21 04:05:00,
2013-01-20 23:10:00,28.0,12.7,30.17,NNW,335,0.0,0.0,52,0.00,CLR,,0.00,WeatherDisplay:10.37,2013-01-21 04:10:00,
2013-01-20 23:15:00,28.0,12.7,30.17,WNW,289,2.9,3.5,52,0.00,CLR,,0.00,WeatherDisplay:10.37,2013-01-21 04:15:00,
2013-01-20 23:20:00,27.7,12.3,30.17,NNW,335,0.9,2.3,52,0.00,CLR,,0.00,WeatherDisplay:10.37,2013-01-21 04:20:00,
2013-01-20 23:25:00,27.7,12.8,30.17,NNW,335,3.8,3.8,53,0.00,CLR,,0.00,WeatherDisplay:10.37,2013-01-21 04:25:00,
2013-01-20 23:30:00,27.7,12.8,30.17,NW,312,3.6,3.6,53,0.00,CLR,,0.00,WeatherDisplay:10.37,2013-01-21 04:30:00,
2013-01-20 23:35:00,27.7,12.8,30.17,NNW,335,2.0,0.0,53,0.00,CLR,,0.00,WeatherDisplay:10.37,2013-01-21 04:35:00,
2013-01-20 23:40:00,27.5,12.6,30.17,North,357,0.0,3.5,53,0.00,CLR,,0.00,WeatherDisplay:10.37,2013-01-21 04:40:00,
2013-01-20 23:45:00,27.5,13.0,30.17,NNW,335,0.0,3.5,54,0.00,CLR,,0.00,WeatherDisplay:10.37,2013-01-21 04:45:00,
2013-01-20 23:50:00,27.5,13.0,30.17,North,357,1.7,3.5,54,0.00,CLR,,0.00,WeatherDisplay:10.37,2013-01-21 04:50:00,
2013-01-20 23:55:00,27.3,12.8,30.17,North,357,2.2,2.3,54,0.00,CLR,,0.00,WeatherDisplay:10.37,2013-01-21 04:55:00,